Regional Weather Roundup
Issued by NWS

Home | Current Version | Previous Version | Text Only | Print | Product List | Glossary Off
Versions: 1 2 3 4 5 6 7 8 9 10 11 12 13 14 15 16 17 18 19 20 21 22 23 24 25 26 27 28 29 30 31 32 33 34 35 36 37 38 39 40 41 42 43 44 45 46 47 48 49 50

000
ASUS43 KLOT 270412
RWRIL

ILLINOIS REGIONAL WEATHER ROUNDUP
NATIONAL WEATHER SERVICE CHICAGO/ROMEOVILLE IL
1100 PM CDT SUN APR 26 2015

NOTE: "FAIR" INDICATES FEW OR NO CLOUDS BELOW 12,000 FEET WITH NO
SIGNIFICANT WEATHER AND/OR OBSTRUCTIONS TO VISIBILITY.

* THESE STATIONS ARE NOT UNDER NWS QUALITY CONTROL. THEY ALSO MAY NOT
  REPORT WEATHER SUCH AS PRECIPITATION OR FOG.

ILZ001-002-007-009-015-016-024-270500-
NORTHWEST ILLINOIS

CITY           SKY/WX    TMP DP  RH WIND       PRES   REMARKS
MOLINE         CLEAR     42  36  79 CALM      30.05S
STERLING*      CLEAR     43  36  75 CALM      30.05R
SAVANNA*       CLEAR     42  35  74 CALM      30.04S
$$

ILZ003-004-008-010-011-017-018-270500-
NORTH CENTRAL ILLINOIS

CITY           SKY/WX    TMP DP  RH WIND       PRES   REMARKS
ROCKFORD       CLEAR     45  28  51 E7        30.08R
FREEPORT*      CLEAR     37  30  77 CALM      30.06R
ROCHELLE*      CLEAR     39  35  85 CALM      30.06R
DE KALB*       CLEAR     40  28  60 NE3       30.06R
PERU*          CLEAR     46  30  53 CALM      30.05S
$$

ILZ005-006-012>014-019>023-270500-
NORTHEAST ILLINOIS

CITY           SKY/WX    TMP DP  RH WIND       PRES   REMARKS
CHICAGO-OHARE  CLEAR     43  27  53 N9G24     30.04R
CHICAGO-MIDWAY CLEAR     45  29  53 N10       30.04R
AURORA         CLEAR     38  29  70 NW5       30.05R WCI  34
LANSING*       CLEAR     43  28  55 N7        30.03R
JOLIET*        CLEAR     44  28  54 N3        30.04S
WAUKEGAN       CLEAR     43  30  60 N8G17     30.05R
DUPAGE AIRPORT CLEAR     39  26  59 N7        30.04R WCI  34
KANKAKEE*      CLEAR     42  29  60 N3        30.04R
WHEELING       CLEAR     42  27  55 N6        30.06R
MORRIS*        CLEAR     40  30  67 CALM      30.01F
ROMEOVILLE*    CLEAR     40  26  56 N8        30.04S
NORTHERLY ISL    N/A     44  31  60 N15         N/A
$$

LMZ740>746-270500-
SOUTHERN LAKE MICHIGAN

STATION/POSITION SKY/WX   TEMP    WIND        PRES    VSBY  WAVE
                          AIR SEA DIR/SP/G                  HT/PER
                          (F)     (DEG/KT/KT) (MB)    (MI)  (FT/S)
HARRISON CRIB              42     340/ 17/ 20   N/A
BURNHAM HARBOR             45      10/ 15/ 16   N/A
CALUMET HARBOR             44     330/ 10/ 15   N/A
BURNS HARBOR               43     340/ 11/ 14 1016.9R
MICHIGAN CITY              41     310/  9/ 12   N/A
MICHIGAN CITY 6N           41 45  350/ 14/ 17   N/A           4/ 5
$$

ILZ025>027-034>036-040-047-049-050-058-095>099-270500-
WEST-CENTRAL ILLINOIS

CITY           SKY/WX    TMP DP  RH WIND       PRES   REMARKS
QUINCY         CLEAR     46  36  68 NE6       30.06R
GALESBURG*     CLEAR     42  36  80 CALM      30.05S
MACOMB*        CLEAR     41  37  84 W5        30.07S
JACKSONVILLE*  CLEAR     47  36  66 N3        30.05S
PITTSFIELD*    CLEAR     48  35  61 N3        30.06S
$$

ILZ028>032-037-038-041>044-048-051>054-059>061-270500-
CENTRAL ILLINOIS

CITY           SKY/WX    TMP DP  RH WIND       PRES   REMARKS
PONTIAC        CLEAR     42  32  67 CALM      30.04S
BLOOMINGTON    CLEAR     42  32  68 CALM      30.05R
DECATUR        CLEAR     43  32  65 NE3       30.04R
PEORIA         CLEAR     49  35  58 E7        30.06R
LACON*         CLEAR     42  32  70 CALM      30.05R
LINCOLN*       CLEAR     44  36  71 CALM      30.05R
SPRINGFIELD    CLEAR     46  35  65 E3        30.06R
TAYLORVILLE    CLEAR     46  32  57 NE6       30.04S
$$

ILZ033-039-045-046-055>057-062-063-270500-
EAST-CENTRAL ILLINOIS

CITY           SKY/WX    TMP DP  RH WIND       PRES   REMARKS
CHAMPAIGN      CLEAR     44  28  53 N8        30.02S
DANVILLE*      CLEAR     38  32  77 N9        29.98S WCI  32
RANTOUL*       CLEAR     44  32  63 N6        30.02S
MATTOON        CLEAR     41  32  70 N7        30.01R
PARIS*         CLEAR     44  32  63 CALM      30.02R
$$

ILZ079-100>102-270500-
SOUTHWEST ILLINOIS

CITY           SKY/WX    TMP DP  RH WIND       PRES   REMARKS
ALTON          CLEAR     47  39  75 CALM      30.04R
BELLEVILLE     CLEAR     49  37  63 NE6       30.02R
CAHOKIA*       CLEAR     50  38  63 NE8       30.03R
SPARTA*        CLEAR     48  39  71 N7        30.01F
$$

ILZ064>066-069>071-074>076-080>082-084>086-088>090-092>094-270500-
SOUTH-CENTRAL ILLINOIS

CITY           SKY/WX    TMP DP  RH WIND       PRES   REMARKS
CARBONDALE     CLEAR     51  38  60 N7        29.99R
CAIRO*         CLEAR     52  40  63 N6        29.96S
EFFINGHAM*     CLEAR     46  32  57 N6        30.03S
MARION         CLEAR     50  39  66 N3        30.00R
MT. VERNON     CLEAR     48  34  57 N5        30.01S
CENTRALIA*     CLEAR     48  34  57 NE6       30.02R
SALEM*         CLEAR     50  35  56 NE5       30.03R
METROPOLIS*    CLEAR     51  39  64 N3        29.96S
$$

ILZ067-068-072-073-078-083-087-091-270500-
SOUTHEAST ILLINOIS

CITY           SKY/WX    TMP DP  RH WIND       PRES   REMARKS
LAWRENCEVILLE  CLEAR     49  35  58 N13       29.99R
FLORA*         CLEAR     47  34  60 N7        30.01S
FAIRFIELD*     CLEAR     49  36  58 N8        30.00R
HARRISBURG*    CLEAR     50  39  66 N5        29.99S
ROBINSON*      CLEAR     46  34  62 N8        30.01S
CARMI*         CLEAR     50  36  58 N12       29.98R
$$

ABBREVIATIONS USED IN REMARKS
   TC - TEMPERATURE IN CELSIUS
  WCI - WIND CHILL INDEX
   HX - HEAT INDEX
  VSB - VISIBILITY
$$



USA.gov is the U.S. government's official web portal to all federal, state and local government web resources and services.